Location: Unspecified
(0.0000°N, 0.0000°E)
Time: 07:03:11
(UTC+00:00)

DSAT - Visible Passes

Search period start: 09 June 2023 00:00
Search period end: 19 June 2023 00:00
Orbit: 500 x 661 km, 97.5° (Epoch: 08 June)

Date Brightness Start Highest point End Pass type
(mag) Time Alt. Az. Time Alt. Az. Time Alt. Az.
09 Jun ? 04:56:09 10° NNE 05:00:41 88° E 05:05:07 10° S visible
10 Jun ? 05:01:12 10° N 05:05:42 78° WNW 05:10:07 10° SSW visible
11 Jun ? 05:06:15 10° N 05:10:44 65° WNW 05:15:06 10° SSW visible
12 Jun ? 05:11:20 10° N 05:15:44 54° WNW 05:20:02 10° SSW visible
13 Jun ? 05:16:27 10° N 05:20:44 45° WNW 05:24:55 10° SSW visible
14 Jun ? 05:21:34 10° N 05:25:43 38° WNW 05:29:46 10° SSW visible
15 Jun ? 03:54:51 10° E 03:55:36 10° E 03:56:20 10° ESE visible
15 Jun ? 05:26:43 10° NNW 05:30:42 32° WNW 05:34:34 10° SW visible
16 Jun ? 03:58:45 10° ENE 04:00:33 12° E 04:02:22 10° SE visible
16 Jun ? 05:31:54 10° NNW 05:35:40 27° WNW 05:39:19 10° SW visible
17 Jun ? 04:03:07 10° ENE 04:05:32 15° E 04:07:53 10° SE visible
18 Jun ? 04:07:39 10° ENE 04:10:29 17° E 04:13:15 10° SE visible
